Amelia, Virginia, United States
Lat: 37.37N, Lon: 77.92W
Wx Zone: VAZ068
Local Info
Past Weather Observations for Sunday, November 16, 2014

NOTE: This archive is for the closest National Weather Service station to Amelia. Information may differ from the station used for current weather conditions.

Click here for Long-term Archive

Time Weather Temperature Dewpoint Humidity Pressure Winds Precip Visibility
23:55
Overcast
Light Rain
41°F / 5°C 41°F / 5°C 100% 30.06 in
(1018 mb)
Calm - 5SM
23:35
Overcast
Light Rain
41°F / 5°C 41°F / 5°C 100% 30.06 in
(1018 mb)
SE 3.5 mph
(SE 6 kph)
- 3SM
23:15
Overcast
Light Rain
41°F / 5°C 41°F / 5°C 100% 30.09 in
(1019 mb)
Calm - 2 1/2SM
22:55
Overcast
Light Rain
41°F / 5°C 41°F / 5°C 100% 30.09 in
(1019 mb)
Calm - 3SM
22:35
Overcast
Fog And Mist
41°F / 5°C 41°F / 5°C 100% 30.12 in
(1020 mb)
Calm - 3SM
22:15
Overcast
Drizzle
41°F / 5°C 39°F / 4°C 93% 30.12 in
(1020 mb)
Calm - 4SM
21:55
Overcast
Light Rain
41°F / 5°C 39°F / 4°C 93% 30.12 in
(1020 mb)
Calm - 2 1/2SM
21:35
Overcast
Drizzle
41°F / 5°C 39°F / 4°C 93% 30.12 in
(1020 mb)
Calm - 4SM
21:15
Overcast
Light Rain
41°F / 5°C 39°F / 4°C 93% 30.15 in
(1021 mb)
SSE 3.5 mph
(SSE 6 kph)
- 7SM
20:55
Overcast
41°F / 5°C 37°F / 3°C 87% 30.15 in
(1021 mb)
SE 3.5 mph
(SE 6 kph)
- 10SM
20:35
Overcast
43°F / 6°C 36°F / 2°C 76% 30.15 in
(1021 mb)
SE 3.5 mph
(SE 6 kph)
- 10SM
20:15
Overcast
43°F / 6°C 34°F / 1°C 71% 30.15 in
(1021 mb)
SE 3.5 mph
(SE 6 kph)
- 10SM
19:55
Overcast
45°F / 7°C 32°F / 0°C 61% 30.18 in
(1022 mb)
SE 5.8 mph
(SE 9 kph)
- 10SM
19:35
Overcast
45°F / 7°C 30°F / -1°C 57% 30.18 in
(1022 mb)
SE 3.5 mph
(SE 6 kph)
- 10SM
19:15
Overcast
46°F / 8°C 28°F / -2°C 50% 30.21 in
(1023 mb)
Calm - 10SM
18:55
Overcast
46°F / 8°C 28°F / -2°C 50% 30.21 in
(1023 mb)
Calm - 10SM
18:35
Overcast
46°F / 8°C 28°F / -2°C 50% 30.21 in
(1023 mb)
SE 3.5 mph
(SE 6 kph)
- 10SM
18:15
Overcast
46°F / 8°C 30°F / -1°C 53% 30.21 in
(1023 mb)
Calm - 10SM
17:55
Overcast
46°F / 8°C 30°F / -1°C 53% 30.21 in
(1023 mb)
Calm - 10SM
17:35
Overcast
46°F / 8°C 32°F / 0°C 57% 30.21 in
(1023 mb)
Calm - 10SM
17:15
Overcast
46°F / 8°C 30°F / -1°C 53% 30.21 in
(1023 mb)
Calm - 10SM
16:55
Overcast
46°F / 8°C 27°F / -3°C 46% 30.21 in
(1023 mb)
Calm - 10SM
16:35
Overcast
46°F / 8°C 27°F / -3°C 46% 30.21 in
(1023 mb)
Calm - 10SM
16:15
Overcast
48°F / 9°C 27°F / -3°C 43% 30.21 in
(1023 mb)
Calm - 10SM
15:55
Overcast
48°F / 9°C 23°F / -5°C 37% 30.21 in
(1023 mb)
Calm - 10SM
15:35
Mostly Cloudy
48°F / 9°C 25°F / -4°C 40% 30.21 in
(1023 mb)
Calm - 10SM
15:15
Clear
48°F / 9°C 23°F / -5°C 37% 30.21 in
(1023 mb)
Calm - 10SM
14:55
Partly Cloudy
48°F / 9°C 21°F / -6°C 34% 30.21 in
(1023 mb)
Calm - 10SM
14:35
Mostly Cloudy
48°F / 9°C 21°F / -6°C 34% 30.21 in
(1023 mb)
S 4.6 mph
(S 7 kph)
- 10SM
14:15
Mostly Cloudy
48°F / 9°C 21°F / -6°C 34% 30.24 in
(1024 mb)
SW 4.6 mph
(SW 7 kph)
- 10SM
13:55
Overcast
48°F / 9°C 21°F / -6°C 34% 30.24 in
(1024 mb)
S 3.5 mph
(S 6 kph)
- 10SM
13:35
Overcast
48°F / 9°C 21°F / -6°C 34% 30.24 in
(1024 mb)
Calm - 10SM
13:15
Overcast
48°F / 9°C 21°F / -6°C 34% 30.24 in
(1024 mb)
SSE 4.6 mph
(SSE 7 kph)
- 10SM
12:55
Overcast
48°F / 9°C 19°F / -7°C 32% 30.24 in
(1024 mb)
SSE 3.5 mph
(SSE 6 kph)
- 10SM
12:35
Overcast
48°F / 9°C 19°F / -7°C 32% 30.27 in
(1025 mb)
Calm - 10SM
12:15
Overcast
46°F / 8°C 21°F / -6°C 37% 30.27 in
(1025 mb)
Calm - 10SM
11:55
Overcast
46°F / 8°C 21°F / -6°C 37% 30.3 in
(1026 mb)
SW 4.6 mph
(SW 7 kph)
- 10SM
11:35
Overcast
46°F / 8°C 21°F / -6°C 37% 30.3 in
(1026 mb)
SW 6.9 mph
(SW 11 kph)
- 10SM
11:15
Overcast
45°F / 7°C 25°F / -4°C 46% 30.33 in
(1027 mb)
SSE 4.6 mph
(SSE 7 kph)
- 10SM
10:55
Overcast
45°F / 7°C 25°F / -4°C 46% 30.33 in
(1027 mb)
SSE 3.5 mph
(SSE 6 kph)
- 10SM
10:35
Overcast
45°F / 7°C 27°F / -3°C 49% 30.33 in
(1027 mb)
S 4.6 mph
(S 7 kph)
- 10SM
10:15
Overcast
43°F / 6°C 27°F / -3°C 53% 30.36 in
(1028 mb)
SSE 6.9 mph
(SSE 11 kph)
- 10SM
09:55
Overcast
Light Rain
43°F / 6°C 28°F / -2°C 57% 30.36 in
(1028 mb)
S 4.6 mph
(S 7 kph)
- 10SM
09:35
Overcast
41°F / 5°C 28°F / -2°C 61% 30.36 in
(1028 mb)
SSE 3.5 mph
(SSE 6 kph)
- 10SM
09:15
Overcast
41°F / 5°C 28°F / -2°C 61% 30.39 in
(1029 mb)
S 3.5 mph
(S 6 kph)
- 10SM
08:55
Overcast
39°F / 4°C 30°F / -1°C 70% 30.39 in
(1029 mb)
Calm - 10SM
08:35
Overcast
37°F / 3°C 28°F / -2°C 70% 30.39 in
(1029 mb)
Calm - 10SM
08:15
Overcast
37°F / 3°C 28°F / -2°C 70% 30.36 in
(1028 mb)
Calm - 10SM
07:55
Overcast
36°F / 2°C 28°F / -2°C 75% 30.36 in
(1028 mb)
Calm - 10SM
07:35
Overcast
36°F / 2°C 28°F / -2°C 75% 30.36 in
(1028 mb)
Calm - 10SM
07:15
Overcast
34°F / 1°C 28°F / -2°C 81% 30.36 in
(1028 mb)
Calm - 10SM
06:55
Overcast
34°F / 1°C 28°F / -2°C 81% 30.36 in
(1028 mb)
Calm - 10SM
06:35
Overcast
34°F / 1°C 28°F / -2°C 81% 30.36 in
(1028 mb)
Calm - 10SM
06:15
Overcast
34°F / 1°C 28°F / -2°C 81% 30.36 in
(1028 mb)
Calm - 10SM
05:55
Overcast
34°F / 1°C 27°F / -3°C 75% 30.36 in
(1028 mb)
Calm - 10SM
05:35
Overcast
34°F / 1°C 27°F / -3°C 75% 30.39 in
(1029 mb)
Calm - 10SM
05:15
Overcast
34°F / 1°C 25°F / -4°C 70% 30.39 in
(1029 mb)
Calm - 10SM
04:55
Overcast
34°F / 1°C 27°F / -3°C 75% 30.36 in
(1028 mb)
Calm - 10SM
04:35
Overcast
34°F / 1°C 25°F / -4°C 70% 30.36 in
(1028 mb)
Calm - 10SM
04:15
Overcast
34°F / 1°C 25°F / -4°C 70% 30.39 in
(1029 mb)
Calm - 10SM
03:55
Overcast
34°F / 1°C 25°F / -4°C 70% 30.39 in
(1029 mb)
Calm - 10SM
03:35
Overcast
34°F / 1°C 25°F / -4°C 70% 30.39 in
(1029 mb)
Calm - 10SM
03:15
Overcast
34°F / 1°C 25°F / -4°C 70% 30.39 in
(1029 mb)
Calm - 10SM
02:55
Overcast
34°F / 1°C 25°F / -4°C 70% 30.39 in
(1029 mb)
Calm - 10SM
02:35
Overcast
34°F / 1°C 25°F / -4°C 70% 30.39 in
(1029 mb)
Calm - 10SM
02:15
Overcast
32°F / 0°C 23°F / -5°C 69% 30.39 in
(1029 mb)
Calm - 10SM
01:55
Overcast
32°F / 0°C 25°F / -4°C 75% 30.39 in
(1029 mb)
Calm - 10SM
01:35
Overcast
32°F / 0°C 25°F / -4°C 75% 30.39 in
(1029 mb)
Calm - 10SM
01:15
Overcast
30°F / -1°C 25°F / -4°C 80% 30.39 in
(1029 mb)
Calm - 10SM
00:55
Mostly Cloudy
28°F / -2°C 27°F / -3°C 93% 30.39 in
(1029 mb)
Calm - 10SM
00:35
Mostly Cloudy
28°F / -2°C 23°F / -5°C 80% 30.39 in
(1029 mb)
Calm - 10SM
00:15
Mostly Cloudy
25°F / -4°C 25°F / -4°C 100% 30.42 in
(1030 mb)
Calm - 10SM
Time Weather Temperature Dewpoint Humidity Pressure Winds Precip Visibility


Weather for websites

WeatherForYou.com, LLC is not responsible for any damages or problems caused by this service. Current weather conditions are obtained from the closest station including government and personal stations which may have varying degrees of accuracy. Weather forecasts are derived from the NOAA NDFD. Like all things, this site belongs to Jesus Christ... He just trusts me to maintain it. If you have any questions or comments email webmaster@weatherforyou.com

Copyright © 2014, WeatherForYou.com LLC. All rights reserved.